PIA451 OPIS-OPSD

Flight info

Callsign PIA451
Flight time 0h 41m
Altitude 31000
Route BOBAM DCT KAGLO J186 KAPMI J154 BUNGI J186 DELDA DCT BIREB
Aircraft A320/M-SDE3FGHIRWY/LB1

Departure

Time 2026-05-03 23:00
Airport Islamabad International Airport (OPIS)

Arrival

Time 2026-05-03 23:41
Airport Skardu International Airport (OPSD)
Time Latitude Longitude Altitude Speed Heading
2026-05-03 22:29 33.55720 72.83193 1773 ft 0 kts 99°
2026-05-03 22:49 33.55721 72.83190 1770 ft 2 kts 99°
2026-05-03 22:49 33.55724 72.83169 1770 ft 3 kts 103°
2026-05-03 22:50 33.55729 72.83145 1773 ft 3 kts 108°
2026-05-03 22:50 33.55736 72.83123 1771 ft 3 kts 118°
2026-05-03 22:50 33.55747 72.83104 1772 ft 3 kts 142°
2026-05-03 22:50 33.55761 72.83095 1770 ft 2 kts 187°
2026-05-03 22:51 33.55768 72.83096 1770 ft 0 kts 191°
2026-05-03 22:53 33.55750 72.83092 1770 ft 5 kts 191°
2026-05-03 22:53 33.55723 72.83086 1772 ft 5 kts 191°
2026-05-03 22:53 33.55663 72.83070 1772 ft 11 kts 200°
2026-05-03 22:54 33.55609 72.83004 1770 ft 12 kts 236°
2026-05-03 22:54 33.55562 72.82914 1772 ft 14 kts 238°
2026-05-03 22:54 33.55506 72.82813 1770 ft 15 kts 235°
2026-05-03 22:54 33.55443 72.82704 1770 ft 17 kts 235°
2026-05-03 22:55 33.55355 72.82621 1772 ft 17 kts 191°
2026-05-03 22:55 33.55239 72.82597 1773 ft 14 kts 185°
2026-05-03 22:55 33.55179 72.82677 1769 ft 14 kts 99°
2026-05-03 22:55 33.55163 72.82787 1769 ft 13 kts 99°
2026-05-03 22:56 33.55149 72.82890 1768 ft 13 kts 99°
2026-05-03 22:56 33.55133 72.82991 1768 ft 11 kts 101°
2026-05-03 22:56 33.55115 72.83102 1768 ft 15 kts 101°
2026-05-03 22:56 33.55098 72.83213 1771 ft 12 kts 101°
2026-05-03 22:57 33.55081 72.83315 1768 ft 15 kts 101°
2026-05-03 22:57 33.55053 72.83499 1768 ft 25 kts 100°
2026-05-03 22:57 33.55022 72.83704 1772 ft 26 kts 101°
2026-05-03 22:57 33.54989 72.83919 1770 ft 27 kts 101°
2026-05-03 22:58 33.54954 72.84142 1772 ft 28 kts 101°
2026-05-03 22:58 33.54916 72.84366 1768 ft 23 kts 102°
2026-05-03 22:58 33.54833 72.84437 1767 ft 17 kts 188°
2026-05-03 22:58 33.54724 72.84399 1765 ft 15 kts 224°
2026-05-03 22:59 33.54719 72.84356 1762 ft 5 kts 281°
2026-05-03 22:59 33.54761 72.84098 1760 ft 68 kts 280°
2026-05-03 22:59 33.54888 72.83288 1764 ft 128 kts 281°
2026-05-03 22:59 33.55084 72.82033 1764 ft 176 kts 279°
2026-05-03 23:00 33.55292 72.80538 2261 ft 181 kts 276°
2026-05-03 23:00 33.55507 72.79034 2878 ft 186 kts 280°
2026-05-03 23:00 33.55731 72.77497 3453 ft 187 kts 281°
2026-05-03 23:00 33.55977 72.75906 3822 ft 204 kts 282°
2026-05-03 23:01 33.56207 72.74164 4154 ft 221 kts 275°
2026-05-03 23:01 33.56009 72.72301 4565 ft 237 kts 247°
2026-05-03 23:01 33.54929 72.70728 4958 ft 255 kts 212°
2026-05-03 23:01 33.53277 72.69781 5398 ft 274 kts 198°
2026-05-03 23:02 33.51362 72.69311 6001 ft 284 kts 181°
2026-05-03 23:02 33.49403 72.69557 6809 ft 286 kts 163°
2026-05-03 23:02 33.47614 72.70582 7647 ft 287 kts 143°
2026-05-03 23:02 33.46208 72.72293 8420 ft 291 kts 123°
2026-05-03 23:03 33.45353 72.74481 9184 ft 295 kts 104°
2026-05-03 23:03 33.45101 72.76940 9910 ft 299 kts 92°
2026-05-03 23:03 33.45001 72.79481 10370 ft 315 kts 92°
2026-05-03 23:03 33.44894 72.82165 10597 ft 338 kts 92°
2026-05-03 23:04 33.44883 72.85037 10755 ft 360 kts 84°
2026-05-03 23:04 33.45325 72.88045 11105 ft 373 kts 72°
2026-05-03 23:04 33.46257 72.90962 11694 ft 377 kts 62°
2026-05-03 23:04 33.47462 72.93779 12382 ft 380 kts 61°
2026-05-03 23:05 33.48659 72.96574 13062 ft 383 kts 61°
2026-05-03 23:05 33.49882 72.99431 13753 ft 385 kts 62°
2026-05-03 23:05 33.51104 73.02291 14327 ft 389 kts 61°
2026-05-03 23:05 33.52352 73.05189 14859 ft 393 kts 59°
2026-05-03 23:06 33.53935 73.07838 15372 ft 396 kts 46°
2026-05-03 23:06 33.56042 73.10017 15927 ft 398 kts 32°
2026-05-03 23:06 33.58471 73.11531 16489 ft 399 kts 18°
2026-05-03 23:06 33.61171 73.12361 17068 ft 399 kts
2026-05-03 23:07 33.63940 73.12458 17641 ft 401 kts 356°
2026-05-03 23:07 33.66745 73.12336 18196 ft 405 kts 356°
2026-05-03 23:07 33.69570 73.12203 18681 ft 408 kts 356°
2026-05-03 23:07 33.72415 73.12067 19138 ft 412 kts 355°
2026-05-03 23:08 33.75266 73.11934 19596 ft 416 kts 356°
2026-05-03 23:08 33.78171 73.11807 20052 ft 420 kts 356°
2026-05-03 23:08 33.81116 73.11685 20494 ft 424 kts 356°
2026-05-03 23:08 33.84069 73.11564 20934 ft 428 kts 356°
2026-05-03 23:09 33.87057 73.11437 21371 ft 431 kts 356°
2026-05-03 23:09 33.90069 73.11304 21797 ft 434 kts 356°
2026-05-03 23:09 33.93102 73.11168 22220 ft 438 kts 356°
2026-05-03 23:09 33.96151 73.11033 22583 ft 441 kts 356°
2026-05-03 23:10 33.99242 73.10894 22982 ft 444 kts 356°
2026-05-03 23:10 34.02333 73.10755 23361 ft 447 kts 356°
2026-05-03 23:10 34.05450 73.10615 23678 ft 450 kts 356°
2026-05-03 23:10 34.08598 73.10474 24012 ft 453 kts 356°
2026-05-03 23:11 34.11751 73.10335 24337 ft 455 kts 356°
2026-05-03 23:11 34.14943 73.10195 24627 ft 458 kts 356°
2026-05-03 23:11 34.18130 73.10057 24936 ft 461 kts 356°
2026-05-03 23:11 34.21351 73.09919 25216 ft 464 kts 356°
2026-05-03 23:12 34.24592 73.09779 25507 ft 466 kts 356°
2026-05-03 23:12 34.27836 73.09637 25780 ft 469 kts 356°
2026-05-03 23:12 34.31073 73.09491 26046 ft 471 kts 356°
2026-05-03 23:12 34.34388 73.09341 26309 ft 474 kts 356°
2026-05-03 23:13 34.37655 73.09194 26571 ft 477 kts 356°
2026-05-03 23:13 34.40982 73.09045 26803 ft 479 kts 356°
2026-05-03 23:13 34.44330 73.08896 27053 ft 481 kts 356°
2026-05-03 23:13 34.47678 73.08748 27264 ft 484 kts 357°
2026-05-03 23:14 34.51067 73.08985 27486 ft 488 kts
2026-05-03 23:14 34.54315 73.09969 27734 ft 491 kts 19°
2026-05-03 23:14 34.57414 73.11708 28010 ft 493 kts 31°
2026-05-03 23:14 34.60195 73.14113 28285 ft 493 kts 42°
2026-05-03 23:15 34.62582 73.17132 28594 ft 491 kts 53°
2026-05-03 23:15 34.64474 73.20560 28913 ft 489 kts 60°
2026-05-03 23:15 34.66250 73.24095 29199 ft 490 kts 60°
2026-05-03 23:15 34.68018 73.27627 29540 ft 489 kts 60°
2026-05-03 23:16 34.69781 73.31150 29902 ft 489 kts 60°
2026-05-03 23:16 34.71543 73.34677 30191 ft 489 kts 60°
2026-05-03 23:16 34.73303 73.38212 30511 ft 488 kts 60°
2026-05-03 23:16 34.75063 73.41750 30757 ft 489 kts 60°
2026-05-03 23:17 34.76849 73.45272 30957 ft 490 kts 57°
2026-05-03 23:17 34.81538 73.51347 31042 ft 497 kts 38°
2026-05-03 23:18 34.87065 73.56432 31057 ft 497 kts 38°
2026-05-03 23:18 34.92548 73.61596 31059 ft 497 kts 38°
2026-05-03 23:19 34.97963 73.66749 31095 ft 498 kts 38°
2026-05-03 23:19 35.03427 73.71924 31090 ft 497 kts 38°
2026-05-03 23:20 35.08929 73.77122 31077 ft 497 kts 38°
2026-05-03 23:20 35.14359 73.82256 31073 ft 496 kts 38°
2026-05-03 23:21 35.19821 73.87440 31054 ft 496 kts 38°
2026-05-03 23:21 35.25262 73.92614 31054 ft 496 kts 38°
2026-05-03 23:22 35.33420 74.00388 31047 ft 495 kts 38°
2026-05-03 23:22 35.38808 74.05623 31030 ft 494 kts 43°
2026-05-03 23:23 35.43181 74.12062 31035 ft 491 kts 60°
2026-05-03 23:23 35.46371 74.19465 31037 ft 491 kts 64°
2026-05-03 23:24 35.49494 74.26878 31046 ft 490 kts 64°
2026-05-03 23:24 35.52584 74.34237 31034 ft 490 kts 64°
2026-05-03 23:25 35.55707 74.41681 31040 ft 490 kts 64°
2026-05-03 23:25 35.58818 74.49140 31044 ft 490 kts 64°
2026-05-03 23:26 35.61920 74.56590 31051 ft 490 kts 64°
2026-05-03 23:26 35.65074 74.64020 31047 ft 490 kts 63°
2026-05-03 23:27 35.66726 74.67689 30748 ft 491 kts 62°
2026-05-03 23:27 35.68315 74.71439 29469 ft 495 kts 68°
2026-05-03 23:27 35.69434 74.75443 28058 ft 497 kts 77°
2026-05-03 23:27 35.69973 74.79634 26792 ft 497 kts 88°
2026-05-03 23:28 35.69921 74.83857 25542 ft 495 kts 97°
2026-05-03 23:28 35.69289 74.88023 24308 ft 494 kts 107°
2026-05-03 23:28 35.68298 74.92070 23040 ft 495 kts 108°
2026-05-03 23:28 35.67329 74.96044 22256 ft 486 kts 108°
2026-05-03 23:29 35.66363 75.00052 21288 ft 480 kts 107°
2026-05-03 23:29 35.65442 75.03903 20463 ft 473 kts 107°
2026-05-03 23:29 35.64520 75.07752 19758 ft 466 kts 107°
2026-05-03 23:29 35.63601 75.11554 19017 ft 459 kts 107°
2026-05-03 23:30 35.62704 75.15248 17775 ft 447 kts 107°
2026-05-03 23:30 35.61828 75.18845 16906 ft 428 kts 107°
2026-05-03 23:30 35.60992 75.22261 16226 ft 408 kts 107°
2026-05-03 23:30 35.60191 75.25524 15560 ft 393 kts 107°
2026-05-03 23:31 35.59344 75.28705 14916 ft 387 kts 113°
2026-05-03 23:31 35.58126 75.31615 14297 ft 382 kts 123°
2026-05-03 23:31 35.56521 75.34206 13597 ft 383 kts 133°
2026-05-03 23:31 35.54514 75.36206 14053 ft 368 kts 152°
2026-05-03 23:32 35.52065 75.37301 14347 ft 381 kts 167°
2026-05-03 23:32 35.49503 75.38006 14308 ft 367 kts 160°
2026-05-03 23:32 35.47418 75.39541 14561 ft 344 kts 139°
2026-05-03 23:32 35.45678 75.41529 14283 ft 337 kts 137°
2026-05-03 23:33 35.43902 75.43333 14027 ft 330 kts 144°
2026-05-03 23:33 35.41970 75.44837 13630 ft 327 kts 149°
2026-05-03 23:33 35.39972 75.46206 13063 ft 330 kts 153°
2026-05-03 23:33 35.37954 75.47448 12644 ft 329 kts 153°
2026-05-03 23:34 35.35930 75.48703 12285 ft 324 kts 155°
2026-05-03 23:34 35.33794 75.49619 11616 ft 330 kts 165°
2026-05-03 23:34 35.31665 75.50342 11246 ft 311 kts 161°
2026-05-03 23:34 35.29834 75.51524 10900 ft 290 kts 138°
2026-05-03 23:35 35.28652 75.53487 10567 ft 287 kts 116°
2026-05-03 23:35 35.27871 75.55686 10557 ft 273 kts 112°
2026-05-03 23:35 35.27232 75.57809 10494 ft 261 kts 105°
2026-05-03 23:35 35.27020 75.59964 10504 ft 252 kts 85°
2026-05-03 23:36 35.27381 75.61990 10495 ft 239 kts 68°
2026-05-03 23:36 35.28075 75.63773 10494 ft 223 kts 59°
2026-05-03 23:36 35.29201 75.64882 11095 ft 208 kts 18°
2026-05-03 23:36 35.30672 75.65004 11274 ft 218 kts 352°
2026-05-03 23:37 35.31653 75.64649 11288 ft 218 kts 335°
2026-05-03 23:37 35.32859 75.63600 11326 ft 218 kts 317°
2026-05-03 23:37 35.33930 75.62310 11482 ft 217 kts 316°
2026-05-03 23:37 35.35008 75.61027 11577 ft 216 kts 317°
2026-05-03 23:38 35.36107 75.59763 11654 ft 217 kts 318°
2026-05-03 23:38 35.37232 75.58538 11621 ft 216 kts 320°
2026-05-03 23:38 35.38376 75.57357 11518 ft 216 kts 320°
2026-05-03 23:38 35.39504 75.56190 11412 ft 207 kts 320°
2026-05-03 23:39 35.40560 75.55025 11090 ft 206 kts 317°
2026-05-03 23:39 35.41476 75.53723 10796 ft 194 kts 299°
2026-05-03 23:39 35.41599 75.52203 10585 ft 175 kts 250°
2026-05-03 23:39 35.41089 75.50821 9888 ft 190 kts 239°
2026-05-03 23:40 35.40031 75.49757 9075 ft 200 kts 191°
2026-05-03 23:40 35.38727 75.50010 8524 ft 193 kts 149°
2026-05-03 23:40 35.37641 75.50934 8086 ft 185 kts 147°
2026-05-03 23:40 35.36573 75.51741 7711 ft 177 kts 148°
2026-05-03 23:41 35.35592 75.52529 7484 ft 165 kts 147°
2026-05-03 23:41 35.34648 75.53281 7378 ft 152 kts 147°
2026-05-03 23:41 35.33896 75.53875 7374 ft 105 kts 147°
2026-05-03 23:41 35.33431 75.54240 7377 ft 48 kts 147°
2026-05-03 23:42 35.33287 75.54354 7375 ft 14 kts 150°
2026-05-03 23:42 35.33229 75.54312 7375 ft 8 kts 238°
2026-05-03 23:42 35.33219 75.54292 7375 ft 0 kts 238°
2026-05-03 23:43 35.33211 75.54275 7376 ft 6 kts 238°
2026-05-03 23:43 35.33194 75.54244 7377 ft 3 kts 238°
2026-05-03 23:44 35.33187 75.54229 7376 ft 1 kts 238°
2026-05-03 23:44 35.33181 75.54217 7377 ft 4 kts 238°
2026-05-03 23:44 35.33170 75.54197 7375 ft 2 kts 238°
2026-05-03 23:44 35.33160 75.54176 7375 ft 5 kts 238°
2026-05-03 23:45 35.33146 75.54150 7376 ft 3 kts 237°
2026-05-03 23:45 35.33129 75.54122 7376 ft 5 kts 226°
2026-05-03 23:45 35.33104 75.54121 7377 ft 3 kts 156°
2026-05-03 23:45 35.33095 75.54130 7377 ft 1 kts 143°
2026-05-03 23:46 35.33089 75.54135 7377 ft 2 kts 145°
2026-05-03 23:46 35.33088 75.54136 7377 ft 0 kts 145°